Probability
0 0 0 0 0 0 0 0 0 0 0 0 0 0 0 0 0 0 0 0 0 3 3 3 3 3 3 3 3 3 3 3 3 3 3 3 3 3 0 0 0 0 0
0 0 0 0 0 0 0 0 0 0 0 0 0 0 0 0 0 0 0 0 0 0 3 3 0 3 3 3 3 3 3 3 3 3 3 3 3 3 3 0 0 0 0
0 0 0 0 0 0 0 0 0 0 0 0 0 0 0 0 0 0 0 0 0 0 0 0 3 0 0 3 3 3 3 3 3 3 3 3 3 3 3 3 3 3 0
0 0 0 0 0 0 0 0 0 0 0 0 0 0 0 0 0 0 0 0 0 0 0 0 0 0 0 0 0 3 3 3 3 3 3 3 0 0 0 3 3 3 0
0 0 0 0 0 0 0 0 0 0 0 0 0 0 0 0 0 0 0 0 0 0 0 0 0 0 0 0 0 0 0 3 3 0 0 0 0 0 0 0 0 3 0
0 0 0 0 0 0 0 0 0 0 0 0 0 0 0 0 0 0 0 0 0 0 0 0 0 0 0 0 0 0 0 0 0 0 0 0 0 0 0 0 0 0 0
0 0 0 0 0 0 0 0 0 0 0 0 0 0 0 0 0 0 0 0 0 0 0 0 0 0 0 0 0 0 0 0 0 0 0 0 0 0 0 0 0 0 0
0 0 0 0 0 0 0 0 0 0 0 0 0 0 0 0 0 0 0 0 0 0 0 0 0 0 0 0 0 0 0 0 0 0 0 0 0 0 0 0 0 0 0
0 0 0 0 0 0 0 0 0 0 0 0 0 0 0 0 0 0 0 0 0 0 0 0 0 0 0 0 0 0 0 0 0 0 0 0 0 0 0 0 0 0 0
0 0 0 0 0 0 0 0 0 0 0 0 0 0 0 0 0 0 0 0 0 0 0 0 0 0 0 0 0 0 0 0 0 0 0 0 0 0 0 0 0 0 0
0 0 0 0 0 0 0 0 0 0 0 0 0 0 0 0 0 0 0 0 0 0 0 0 0 0 0 0 0 0 0 0 0 0 0 0 0 0 0 0 0 0 0
0 0 0 0 0 0 0 0 0 0 0 0 0 0 0 0 0 0 0 0 0 0 0 0 0 0 0 0 0 0 0 0 0 0 0 0 0 0 0 0 0 0 0
0 0 0 0 0 0 0 0 0 0 0 0 0 0 0 0 0 0 0 0 0 0 0 0 0 0 0 0 0 0 0 0 0 0 0 0 0 0 0 0 0 0 0
0 0 0 0 0 0 0 0 0 0 0 0 0 0 0 0 0 0 0 0 0 0 0 0 0 0 0 0 0 0 0 0 0 0 0 0 0 0 0 0 0 0 0
0 0 0 0 0 0 0 0 0 0 0 0 0 0 0 0 0 0 0 0 0 0 0 0 0 0 0 0 0 0 0 0 0 0 0 0 0 0 0 0 0 0 0
0 0 0 0 0 0 0 0 0 0 0 0 0 0 0 0 0 0 0 0 0 0 0 0 0 0 0 0 0 0 0 0 0 0 0 0 0 0 0 0 0 0 0
0 0 0 0 0 0 0 0 0 0 0 0 0 0 0 0 0 0 0 0 0 0 0 0 0 0 0 0 0 0 0 0 0 0 0 0 0 0 0 0 0 0 0
0 0 0 0 0 0 0 0 0 0 0 0 0 0 0 0 0 0 0 0 0 0 0 0 0 0 0 0 0 0 0 0 0 0 0 0 0 0 0 0 0 0 0
0 0 0 0 0 0 0 0 0 0 0 0 0 0 0 0 0 0 0 0 0 0 0 0 0 0 0 0 0 0 0 0 0 0 0 0 0 0 0 0 0 0 0
0 0 0 0 0 0 0 0 0 0 0 0 0 0 0 0 0 0 0 0 0 0 0 0 0 0 0 0 0 0 0 0 0 0 0 0 0 0 0 0 0 0 0
0 0 0 0 0 0 0 0 0 0 0 0 0 0 0 0 0 0 0 0 0 0 0 0 0 0 0 0 0 0 0 0 0 0 0 0 0 0 0 0 0 0 0
0 0 0 0 0 0 0 0 0 0 0 0 0 0 0 0 0 0 0 0 0 0 0 0 0 0 0 0 0 0 0 0 0 0 0 0 0 0 0 0 0 0 0
0 0 0 0 0 0 0 0 0 0 0 0 0 0 0 0 0 0 0 0 0 0 0 0 0 0 0 0 0 0 0 0 0 0 0 0 0 0 0 0 0 0 0
0 0 0 0 0 0 0 0 0 0 0 0 0 0 0 0 0 0 0 0 0 0 0 0 0 0 0 0 0 0 0 0 0 0 0 0 0 0 0 0 0 0 0
0 0 0 0 0 0 0 0 0 0 0 0 0 0 0 0 0 0 0 0 0 0 0 0 0 0 0 0 0 0 0 0 0 0 0 0 0 0 0 0 0 0 0
0 0 0 0 0 0 0 0 0 0 0 0 0 0 0 0 0 0 0 0 0 0 0 0 0 0 0 0 0 0 0 0 0 0 0 0 0 0 0 0 0 0 0
Height
5788 5790 5791 5793 5794 5795 5796 5796 5797 5797 5798 5799 5799 5799 5800 5800 5800 5801 5800 5800 5800 5800 5800 5800 5800 5799 5798 5797 5796 5795 5794 5793 5791 5790 5788 5787 5785 5783 5781 5779 5777 5774 5772
5780 5782 5783 5784 5786 5787 5788 5789 5789 5790 5791 5791 5792 5792 5793 5793 5793 5793 5793 5793 5793 5793 5793 5793 5792 5791 5790 5790 5789 5788 5787 5785 5784 5782 5780 5779 5777 5775 5773 5771 5768 5766 5764
5771 5773 5775 5776 5777 5779 5780 5780 5781 5782 5783 5784 5784 5785 5785 5785 5785 5786 5786 5786 5786 5785 5785 5785 5784 5783 5782 5781 5780 5779 5778 5777 5775 5774 5772 5770 5768 5766 5764 5762 5759 5757 5754
5762 5764 5765 5767 5768 5769 5771 5771 5772 5773 5774 5775 5776 5776 5776 5777 5777 5777 5777 5778 5777 5777 5777 5776 5776 5775 5774 5773 5772 5770 5769 5768 5766 5765 5763 5761 5759 5757 5755 5752 5750 5747 5744
5752 5754 5756 5757 5759 5760 5761 5762 5763 5764 5765 5765 5766 5767 5767 5767 5768 5768 5769 5769 5769 5768 5768 5767 5767 5766 5765 5764 5763 5761 5760 5759 5757 5755 5754 5752 5750 5747 5745 5742 5740 5737 5734
5742 5744 5745 5747 5748 5750 5751 5752 5753 5754 5755 5756 5757 5757 5757 5758 5758 5758 5759 5759 5759 5759 5758 5758 5757 5756 5755 5754 5753 5752 5750 5749 5747 5745 5743 5741 5739 5737 5734 5731 5729 5726 5723
5732 5734 5735 5736 5737 5739 5741 5742 5743 5744 5745 5745 5746 5747 5748 5748 5748 5748 5749 5749 5749 5748 5748 5747 5747 5746 5745 5744 5743 5741 5740 5738 5737 5735 5733 5730 5728 5726 5723 5721 5718 5715 5712
5721 5723 5724 5726 5727 5728 5730 5731 5732 5733 5734 5735 5736 5736 5737 5739 5738 5738 5738 5738 5738 5737 5737 5736 5735 5735 5734 5733 5731 5730 5728 5727 5725 5723 5722 5719 5717 5714 5712 5709 5706 5704 5701
5710 5712 5714 5715 5716 5718 5719 5720 5721 5723 5724 5725 5725 5726 5727 5728 5728 5729 5728 5728 5727 5727 5726 5725 5724 5723 5722 5721 5720 5719 5717 5715 5713 5711 5710 5708 5705 5703 5700 5698 5695 5692 5689
5699 5701 5703 5704 5705 5707 5708 5709 5711 5711 5713 5714 5714 5715 5716 5716 5716 5717 5718 5717 5716 5715 5714 5713 5712 5711 5710 5709 5708 5707 5705 5703 5701 5699 5697 5695 5693 5690 5688 5686 5683 5680 5677
5687 5689 5691 5692 5694 5695 5696 5698 5699 5700 5701 5702 5703 5704 5704 5704 5704 5705 5706 5705 5705 5704 5703 5702 5701 5699 5698 5697 5695 5694 5692 5690 5688 5686 5684 5682 5680 5678 5675 5673 5671 5669 5666
5675 5677 5679 5681 5682 5684 5685 5686 5687 5688 5689 5690 5691 5691 5692 5692 5692 5692 5692 5693 5692 5692 5691 5690 5689 5688 5686 5684 5683 5681 5679 5677 5675 5673 5671 5669 5667 5665 5663 5661 5659 5656 5654
5663 5665 5667 5669 5670 5671 5673 5674 5675 5677 5677 5678 5679 5679 5680 5680 5679 5679 5679 5679 5680 5680 5679 5678 5676 5675 5673 5672 5670 5668 5666 5664 5662 5660 5657 5655 5653 5652 5650 5648 5646 5644 5641
5651 5653 5655 5657 5658 5659 5660 5662 5663 5664 5665 5666 5666 5667 5667 5667 5666 5666 5666 5666 5666 5667 5666 5665 5663 5662 5660 5658 5656 5655 5653 5651 5648 5646 5644 5642 5640 5638 5636 5635 5633 5630 5628
5639 5641 5643 5644 5645 5647 5648 5649 5650 5651 5652 5653 5654 5654 5654 5654 5653 5653 5653 5652 5653 5653 5654 5653 5650 5648 5646 5644 5643 5641 5639 5637 5635 5632 5630 5628 5626 5624 5623 5621 5619 5617 5615
5627 5629 5630 5631 5632 5634 5635 5636 5637 5638 5639 5640 5641 5641 5641 5641 5641 5640 5640 5639 5638 5638 5639 5640 5637 5635 5633 5631 5629 5626 5624 5622 5620 5618 5616 5614 5612 5610 5609 5607 5605 5603 5602
5616 5617 5618 5619 5621 5622 5623 5624 5625 5626 5627 5627 5628 5628 5628 5627 5627 5627 5626 5625 5624 5623 5624 5625 5623 5621 5619 5617 5614 5612 5609 5607 5605 5603 5601 5600 5598 5596 5594 5593 5591 5590 5588
5604 5605 5606 5607 5608 5609 5610 5611 5612 5613 5613 5614 5614 5614 5614 5613 5613 5613 5612 5611 5611 5609 5609 5610 5609 5607 5605 5602 5600 5597 5595 5593 5591 5589 5587 5585 5583 5582 5580 5579 5578 5576 5575
5592 5593 5594 5594 5595 5596 5597 5597 5598 5599 5600 5600 5601 5600 5600 5600 5599 5599 5598 5598 5597 5596 5595 5594 5594 5592 5590 5587 5585 5583 5580 5579 5577 5575 5573 5571 5570 5568 5566 5565 5564 5563 5561
5580 5581 5581 5581 5582 5583 5583 5584 5585 5585 5586 5586 5586 5586 5586 5585 5585 5585 5584 5584 5583 5582 5581 5580 5579 5577 5575 5573 5570 5569 5567 5565 5564 5562 5560 5558 5557 5555 5553 5552 5551 5550 5549
5568 5568 5568 5568 5569 5569 5570 5570 5571 5572 5572 5572 5572 5572 5571 5571 5571 5571 5571 5570 5569 5568 5567 5565 5564 5563 5562 5559 5558 5555 5554 5552 5551 5549 5547 5546 5545 5543 5541 5540 5539 5537 5536
5556 5556 5556 5556 5556 5556 5556 5556 5557 5558 5558 5559 5559 5558 5558 5558 5558 5558 5557 5557 5556 5555 5554 5553 5552 5550 5549 5547 5545 5543 5541 5540 5539 5538 5535 5535 5533 5532 5530 5529 5527 5526 5525
5544 5544 5544 5544 5544 5544 5544 5544 5544 5545 5546 5546 5546 5546 5546 5546 5546 5546 5545 5545 5544 5542 5542 5541 5540 5539 5537 5535 5533 5531 5529 5528 5527 5525 5524 5524 5522 5521 5520 5519 5517 5516 5516
5532 5532 5532 5532 5533 5533 5533 5533 5533 5534 5534 5534 5535 5535 5535 5535 5535 5534 5534 5533 5532 5531 5530 5529 5528 5527 5525 5523 5521 5520 5518 5517 5516 5515 5513 5514 5513 5511 5510 5509 5508 5507 5507
5522 5522 5522 5522 5522 5523 5522 5523 5523 5523 5524 5524 5524 5524 5524 5524 5524 5523 5523 5522 5521 5520 5519 5518 5517 5515 5514 5512 5511 5509 5508 5507 5507 5506 5505 5504 5503 5502 5501 5501 5500 5499 5499
5513 5513 5513 5513 5513 5513 5513 5513 5514 5514 5514 5515 5515 5515 5514 5514 5513 5512 5512 5511 5511 5510 5509 5508 5507 5505 5504 5503 5501 5500 5499 5498 5498 5498 5496 5495 5495 5494 5494 5493 5492 5492 5491
Wind_Speed
35 35 34 34 33 33 32 32 32 32 31 31 31 31 31 31 32 32 32 32 32 32 32 32 32 33 33 33 33 34 33 34 34 34 34 34 35 35 35 35 35 36 37
37 37 36 36 35 35 35 34 34 34 34 34 33 33 33 33 34 33 33 34 34 34 34 34 34 35 35 35 36 36 36 36 36 36 35 35 36 36 36 36 37 38 39
38 38 38 38 38 38 37 37 37 37 37 36 36 35 35 35 36 35 35 35 36 36 36 36 36 37 37 37 38 38 37 37 37 37 37 37 37 38 38 39 39 40 40
40 40 40 40 40 40 39 39 39 39 39 38 38 38 37 37 37 37 37 37 38 38 38 38 39 39 39 39 39 39 39 39 39 39 39 39 39 39 40 41 41 42 42
42 42 42 42 42 42 41 41 41 41 41 40 40 40 39 39 39 39 39 39 39 40 40 41 41 40 40 40 40 40 41 41 41 41 41 41 42 42 42 42 43 43 43
43 43 43 43 44 44 43 43 43 42 42 41 42 42 41 41 41 41 41 41 41 41 42 42 42 42 42 42 41 42 42 42 43 43 43 44 44 45 45 44 44 45 45
43 43 43 43 44 45 45 45 45 45 44 44 44 44 43 42 43 42 42 42 43 43 44 44 43 43 43 43 43 44 44 44 43 44 45 46 46 46 46 46 46 46 47
45 44 45 45 45 45 46 46 46 46 46 45 44 44 44 44 44 44 43 44 45 45 45 45 46 45 45 46 45 45 45 46 46 46 46 46 47 47 48 48 48 47 48
46 46 46 46 46 47 47 47 46 46 46 46 46 45 44 44 44 45 45 45 45 46 46 47 47 47 47 47 47 47 47 48 48 48 48 47 47 48 49 49 49 48 48
46 46 46 46 47 48 48 47 47 46 47 47 46 46 46 45 45 45 45 46 47 47 47 47 47 47 48 48 48 48 48 49 49 49 49 49 48 49 49 48 48 48 47
47 47 47 48 47 48 48 49 49 49 49 48 47 47 47 47 47 47 47 47 47 47 47 47 47 48 48 48 48 49 49 49 50 50 50 50 50 49 48 47 47 47 47
47 49 49 49 49 49 50 50 49 49 49 49 49 48 48 48 48 48 48 48 48 48 48 48 48 48 48 49 50 50 50 50 50 51 51 51 50 49 48 47 47 47 47
47 48 49 49 50 51 52 52 51 51 50 50 50 49 49 49 49 49 50 49 49 49 49 49 50 50 50 51 51 50 50 50 51 51 51 51 51 50 49 49 49 48 48
47 48 49 49 50 51 51 51 51 50 50 50 51 50 50 49 50 50 50 50 50 49 49 49 50 51 51 51 51 51 51 51 51 51 51 51 51 51 51 50 50 49 48
46 47 48 49 50 51 51 51 51 50 50 51 51 51 51 50 49 50 49 50 50 50 50 49 50 50 50 51 51 52 52 52 53 52 52 52 51 51 51 51 50 49 47
45 46 46 46 47 48 49 49 50 50 50 50 51 51 51 51 51 50 51 51 52 52 51 50 50 50 50 51 52 53 53 54 53 53 52 51 51 51 50 50 49 47 47
43 45 45 45 46 46 46 47 49 50 50 50 50 50 50 51 52 52 53 53 53 53 51 51 51 52 52 53 54 54 54 54 53 52 51 50 49 49 48 47 47 47 47
42 44 45 46 46 47 47 48 49 50 50 50 50 51 52 53 52 53 53 53 52 53 53 52 52 53 53 54 54 53 52 52 51 49 49 49 48 47 47 47 47 47 47
42 42 43 45 47 47 47 48 49 49 50 50 51 51 52 53 53 53 52 52 53 53 53 53 52 53 53 52 52 50 49 48 48 47 46 46 46 46 46 46 46 45 45
41 42 43 45 45 45 46 48 49 49 50 50 51 51 51 52 51 51 51 51 52 52 52 52 52 51 51 50 48 47 47 47 46 44 44 43 43 44 43 43 43 42 42
41 42 43 44 45 45 46 47 48 48 48 49 49 50 50 50 49 49 49 49 49 49 49 48 48 47 46 45 45 45 44 44 43 42 41 41 41 40 40 40 40 40 39
41 41 42 42 43 44 44 44 45 46 46 46 46 47 47 46 46 47 47 47 47 47 46 45 44 43 42 43 43 42 42 41 40 39 39 38 38 38 38 38 37 36 36
39 39 39 39 40 41 42 41 41 42 42 42 43 43 43 43 42 42 43 43 43 42 41 41 41 40 41 41 41 40 40 38 38 38 37 36 36 36 35 35 34 33 33
36 37 37 37 37 38 38 38 37 37 37 38 38 38 38 39 39 40 39 40 40 39 39 38 38 38 38 38 37 37 36 35 34 34 35 35 34 33 32 31 31 30 29
34 34 35 35 35 35 35 35 34 34 34 34 35 35 36 37 37 37 38 37 36 36 36 37 36 36 36 35 35 34 34 33 32 32 32 31 31 30 29 29 29 28 27
31 31 32 32 32 32 32 31 31 31 32 32 33 34 34 35 35 36 35 34 33 33 34 34 34 34 33 32 32 31 31 31 30 29 29 28 28 28 27 27 26 26 25
Wind_Direction
250 251 251 252 252 253 255 255 257 259 261 261 263 265 265 266 267 267 268 268 268 269 270 272 274 274 276 278 278 279 280 280 281 283 283 284 285 285 285 286 286 287 288
251 251 253 254 254 255 256 256 257 259 262 262 263 264 266 266 267 268 268 268 268 269 270 272 273 275 276 277 277 278 280 281 282 282 283 283 284 285 285 285 286 287 288
252 253 254 255 255 256 257 257 258 260 260 262 262 263 265 266 266 267 268 269 269 269 270 272 274 275 276 277 278 279 280 280 281 281 282 283 283 284 285 285 286 287 287
252 253 254 254 255 256 257 258 259 260 260 261 263 263 264 264 265 266 268 269 269 270 271 273 274 275 276 277 279 280 279 279 280 280 281 283 284 285 285 286 286 286 286
253 253 253 255 255 256 257 258 260 260 261 261 263 264 265 265 265 266 268 269 270 271 272 273 274 275 276 277 278 279 279 279 279 280 281 282 283 285 286 286 286 286 286
254 253 254 255 256 256 256 258 259 259 260 262 264 265 265 265 265 266 268 269 271 272 273 274 275 275 276 276 277 278 278 279 280 280 281 282 283 284 285 285 285 285 285
253 253 254 255 255 255 256 257 259 259 261 262 264 265 265 265 265 267 268 269 271 273 273 273 274 275 276 277 277 278 278 277 279 281 281 281 282 284 284 284 285 285 285
251 252 253 255 256 256 257 258 259 259 260 262 263 265 265 265 266 268 268 269 271 273 273 273 274 275 275 276 277 277 277 278 279 280 281 282 282 282 283 283 284 284 284
252 253 255 256 257 257 257 259 260 259 260 262 263 264 265 266 266 267 268 269 271 271 272 273 274 275 275 276 276 277 277 278 279 279 280 281 282 283 283 283 283 284 284
253 254 255 256 258 258 258 259 259 261 262 263 263 263 265 267 267 266 268 270 271 271 272 272 273 274 275 276 277 276 277 278 279 279 279 280 281 282 282 282 283 284 284
253 254 255 255 257 259 258 259 260 261 261 262 264 264 265 266 267 268 269 270 271 271 271 272 272 273 274 276 277 277 277 278 278 278 279 280 280 281 281 282 282 283 285
255 255 255 255 256 258 259 260 261 262 262 262 263 264 265 267 267 268 269 269 270 271 271 271 272 273 274 275 276 277 277 278 279 279 279 280 280 280 280 281 282 283 284
255 256 257 257 257 259 260 261 261 261 262 262 263 264 265 266 267 268 269 270 270 271 271 271 272 273 274 275 276 277 277 278 279 280 280 280 279 279 279 280 281 282 282
256 257 257 257 258 259 260 260 260 262 262 263 264 265 266 267 268 268 269 269 270 270 272 273 274 274 275 276 277 277 277 279 279 280 280 280 279 278 279 280 281 281 281
258 258 259 259 259 259 260 260 260 262 262 263 264 265 265 266 267 268 269 270 271 271 272 274 275 275 275 276 276 277 279 279 280 280 280 279 278 278 279 279 279 279 280
259 259 261 261 260 260 261 261 260 261 262 263 264 265 265 265 267 268 270 270 272 273 274 274 275 276 276 277 278 279 280 280 281 280 280 279 279 279 278 278 278 279 279
261 260 260 261 260 260 262 262 261 261 262 263 264 265 265 267 267 268 270 271 272 274 274 275 276 276 277 278 279 279 280 280 280 280 279 279 278 278 277 277 277 277 278
263 262 262 261 261 262 262 263 264 263 263 264 265 265 266 267 268 269 270 271 273 275 275 276 276 276 277 278 279 280 280 281 280 279 278 278 277 277 277 276 277 277 277
264 263 264 263 262 263 263 264 264 263 264 265 266 266 267 268 269 270 271 272 273 275 276 276 276 276 277 278 278 278 279 280 279 279 278 277 277 277 277 277 277 277 278
266 266 265 265 265 265 264 264 265 265 265 266 267 267 268 268 269 270 271 273 274 275 276 276 276 277 277 278 278 278 279 279 278 278 277 277 278 278 277 277 277 277 277
267 267 266 266 266 266 266 265 265 266 266 266 267 268 268 268 269 270 272 273 275 276 276 277 277 277 277 277 278 279 279 279 277 276 277 277 278 278 277 278 277 277 276
269 269 268 268 267 267 267 266 266 267 266 267 267 268 268 268 269 270 272 274 275 275 275 275 275 276 277 277 278 279 279 278 276 275 276 276 276 276 277 278 277 277 276
270 268 268 268 268 268 268 267 268 268 267 267 267 268 268 269 270 272 273 273 274 275 275 274 274 275 277 278 278 278 278 278 277 275 274 275 275 276 276 276 276 277 276
271 270 269 269 269 269 268 268 269 268 267 267 267 268 269 270 271 272 272 273 273 273 273 274 275 276 277 277 278 277 277 276 276 274 274 274 274 274 275 275 276 277 276
273 272 271 270 269 269 268 267 268 267 266 267 267 268 269 270 271 271 271 272 271 272 273 274 275 275 276 276 276 276 275 275 276 276 276 275 274 273 274 275 276 276 276
273 272 272 272 271 270 269 267 267 266 266 267 268 268 268 269 269 269 270 271 271 272 273 273 274 274 275 275 274 275 275 275 275 276 275 275 274 273 273 275 276 276 277